Location: Boncourt
(49.6160°N, 3.9448°E)
Time: 12:11:32
(UTC+00:00)

Cosmos 1726 Rocket - Pass Details

Date: 09 February 2023
Orbit: 602 x 627 km, 82.5° (Epoch: 21 March)

Event Time Altitude Azimuth Distance (km) Brightness Sun altitude
Rises 17:21:43 0° 350° (N) 2,868 6.9 -5.3°
Reaches altitude 10° 17:23:56 10° 352° (N) 1,960 6.1 -5.6°
Maximum altitude 17:28:17 82° 80° (E) 617 3.5 -6.3°
Drops below altitude 10° 17:32:36 10° 169° (SSE) 1,951 6.2 -7.0°
Sets 17:34:48 0° 170° (S) 2,854 7.0 -7.3°
